Location: Shepherdstown, WV
(39.4326°N, 77.8042°W)
Time: 14:18:34
(UTC-04:00)

Vanguard 1 Rocket - Pass Details

Date: 08 August 2021
Orbit: 650 x 4226 km, 34.3° (Epoch: 20 September)

Event Time Altitude Azimuth Distance (km) Brightness Sun altitude
Rises 08:26:17 0° 229° (SW) 8,307 11.9 23.4°
Reaches altitude 10° 08:32:07 10° 226° (SW) 7,399 11.7 24.5°
Maximum altitude 08:57:00 56° 156° (SSE) 4,099 11.4 29.3°
Drops below altitude 10° 09:13:37 10° 84° (E) 5,227 12.7 32.5°
Sets 09:16:52 0° 80° (E) 5,855 12.5 33.1°
